"Pseudo-MPEC" for CEGWR52

Created 2026 Apr 11 7:35:07 UT using Find_Orb

Click here for an explanation of pseudo-MPECs

 
 Astrometry: 
     CEGWR52*1C2026 04 08.36929014 18 59.810-05 04 40.40   ~489Z 20.43GVNEOCPG96
     CEGWR52 1C2026 04 08.37451314 18 59.414-05 04 35.51   ~489Z 20.28GVNEOCPG96
     CEGWR52 1C2026 04 08.37973214 18 59.094-05 04 30.50   ~489Z 20.97GVNEOCPG96
     CEGWR52 1C2026 04 08.38493914 18 58.702-05 04 24.31   ~489Z 20.48GVNEOCPG96
     CEGWR52 1C2026 04 08.42168014 18 56.110-05 03 47.80   ~48BK 20.4 RVNEOCP691
     CEGWR52 1C2026 04 08.42922014 18 55.570-05 03 40.30   ~48BK 20.6 RVNEOCP691
     CEGWR52 1C2026 04 08.43676614 18 55.070-05 03 33.00   ~48BK 20.6 RVNEOCP691
     CEGWR52 1C2026 04 08.45838614 18 53.550-05 03 10.73   ~48BK       VNEOCPI52
     CEGWR52 1C2026 04 08.46119114 18 53.298-05 03 09.32   ~48BK       VNEOCPI52
     CEGWR52 1C2026 04 08.46400214 18 53.096-05 03 06.16   ~48BK 20.64GVNEOCPI52
     CEGWR52 |C2026 04 09.10727014 18 09.630-04 52 06.50   ~493Z 21.2 GVNEOCP807
     CEGWR52 |C2026 04 09.11902014 18 08.770-04 51 54.10   ~493Z 20.9 GVNEOCP807
     CEGWR52 |C2026 04 09.13078014 18 07.920-04 51 42.50   ~493Z 21.2 GVNEOCP807
     CEGWR52 KC2026 04 09.28537314 17 56.74 -04 49 14.9    ~497K 21.2 GVNEOCPH21
     CEGWR52 KC2026 04 09.28817114 17 56.56 -04 49 11.4    ~497K 21.2 GVNEOCPH21
     CEGWR52 1C2026 04 09.30006614 17 55.885-04 48 59.04   ~497Z 21.06GVNEOCPI52
     CEGWR52 1C2026 04 09.30596614 17 55.442-04 48 52.45   ~497Z 20.73GVNEOCPI52
     CEGWR52 |C2026 04 10.14429014 16 55.620-04 34 15.80   ~4A45 20.6 GVNEOCP807
     CEGWR52 |C2026 04 10.14677014 16 55.410-04 34 13.20   ~4A45 20.8 GVNEOCP807
     CEGWR52 |C2026 04 10.14925014 16 55.230-04 34 11.00   ~4A45 21.0 GVNEOCP807
     CEGWR52 1C2026 04 10.95458014 15 55.548-04 20 10.90   ~4ANK 20.5 GXNEOCP033
     CEGWR52 1C2026 04 10.95582014 15 55.447-04 20 10.30   ~4ANK 20.4 GXNEOCP033
     CEGWR52 1C2026 04 10.95706014 15 55.318-04 20 08.90   ~4ANK 20.1 GXNEOCP033
     CEGWR52 1C2026 04 10.95830014 15 55.217-04 20 07.30   ~4ANK 20.7 GXNEOCP033
     CEGWR52 1C2026 04 11.28447114 15 30.643-04 14 15.68   ~4B7K 20.85GVNEOCPI52
     CEGWR52 1C2026 04 11.28702814 15 30.438-04 14 12.91   ~4B7K 22.81GVNEOCPI52
     CEGWR52 1C2026 04 11.29302314 15 29.927-04 14 06.22   ~4B7K 21.96GVNEOCPI52

Station data:
(033) Karl Schwarzschild Observatory, Tautenburg  (N50.980139 E11.711240)
   Germany.  Observer B. Stecklum. 1.34-m f/3 Schmidt + CCD.
(691) Steward Observatory, Kitt Peak - Spacewatch  (N31.962174 W111.600327)
   US/Arizona.  Observer J. V. Scotti. 0.9-m f/3 reflector + CCD.
(807) Cerro Tololo Observatory, La Serena  (S30.169133 W70.805900)  Chile.
   Observer R. Holmes. 0.61-m f/6.5 astrograph + CCD.
(G96) Mt. Lemmon Survey  (N32.442729 W110.788720)  US/Arizona.  Observer E.
   J. Christensen. Measurers T. Beuden, V. F. Carvajal, D. Fay, J. B.
   Fazekas, D. C. Fuls, A. R. Gibbs, A. D. Grauer, H. Gröller, J. K. Hogan,
   R. A. Kowalski, S. M. Larson, G. J. Leonard, D. Rankin, R. L. Seaman, F.
   C. Shelly, K. W. Wierzchoś. 1.5-m reflector + 10K CCD.
(H21) Astronomical Research Observatory, Westfield  (N39.483054 W87.968270)
   US/Illinois.  Observer R. Holmes. Measurers S. Foglia, L. Buzzi, T.
   Linder, R. Holmes. 0.40-m f/5.32 astrograph + CCD.
(I52) Steward Observatory, Mt. Lemmon Station  (N32.442570 W110.788920)
   US/Arizona. Measurers T. Beuden, V. F. Carvajal, D. Fay, J. B. Fazekas, D.
   C. Fuls, A. R. Gibbs, A. D. Grauer, H. Gröller, J. K. Hogan, R. A.
   Kowalski, S. M. Larson, G. J. Leonard, D. Rankin, R. L. Seaman, F. C.
   Shelly, K. W. Wierzchoś. 1.0-m prime focus + CCD.

Orbital elements:  CEGWR52
   Perihelion 2026 Aug 13.281403 +/- 0.804 TT =  6:45:13.2 (JD 2461265.781403)
Epoch 2026 Apr 11.0 TT = JDT 2461141.5   Earth MOID: 0.1466   Ve: 0.0099
M 330.217595124 +/- 1.7             (J2000 ecliptic)             AutoNEOCP
n   0.239636857 +/- 0.0128          Peri.  148.230147 +/- 0.30
a   2.567045928 +/- 0.0911          Node   184.555039 +/- 0.43
e   0.76241879 +/- 0.0118           Incl.   11.226484 +/- 0.25
P   4.11292                H 19.20  G  0.15   U  9.8
q 0.609881864 +/- 0.00871    Q 4.524209992 +/- 0.191
From 27 observations 2026 Apr. 8-11; mean residual 0".32
Residuals in arcseconds: 
260408 G96  .04-  .14+    260408 I52  .41-  .55-    260410 807  .42-  .05-    
260408 G96  .43-  .20-    260409 807  .47+  .17-    260410 807  .31-  .44-    
260408 G96  .30+  .41-    260409 807  .25+  .29+    260410 033  .46+  .33+    
260408 G96  .05-  .57+    260409 807  .23+  .07-    260410 033  .39+  .39-    
260408 691  .05-  .23+    260409 H21  .24-  .09-    260410 033  .10-  .32-    
260408 691  .16-  .17+    260409 H21  .13+  .55+    260410 033  .18-  .04-    
260408 691  .33+  .10-    260409 I52  .09+  .14-    260411 I52  .13+  .03+    
260408 I52  .47+  .52+    260409 I52  .06-  .42+    260411 I52  .10+  .05+    
260408 I52  .35-  .88-    260410 807  .08-  .06-    260411 I52  .44-  .30+    

Ephemerides (geocentric):
Date (UTC) HH   RA             Dec           delta  r     elong  mag " sig PA
---- --------  ------------   ------------  ------ ------ -----  --- --------
2026 04 11 08  14 15 26.705   -04 13 17.61  .94437 1.9302 165.2 21.1 .100  93
2026 04 11 09  14 15 23.523   -04 12 32.71  .94384 1.9297 165.2 21.0 .107  89
2026 04 11 10  14 15 20.337   -04 11 47.77  .94330 1.9293 165.2 21.0 .113  86
2026 04 11 11  14 15 17.146   -04 11 02.78  .94276 1.9289 165.3 21.0 .121  84
2026 04 11 12  14 15 13.949   -04 10 17.75  .94223 1.9284 165.3 21.0 .128  81
2026 04 11 13  14 15 10.748   -04 09 32.67  .94169 1.9280 165.4 21.0 .136  79
2026 04 11 14  14 15 07.541   -04 08 47.54  .94115 1.9276 165.4 21.0 .145  77
2026 04 11 15  14 15 04.329   -04 08 02.38  .94062 1.9272 165.4 21.0 .153  75
2026 04 11 16  14 15 01.112   -04 07 17.16  .94009 1.9267 165.5 21.0 .162  73
2026 04 11 17  14 14 57.890   -04 06 31.90  .93955 1.9263 165.5 21.0 .172  71
2026 04 11 18  14 14 54.663   -04 05 46.60  .93902 1.9259 165.6 21.0 .181  70
2026 04 11 19  14 14 51.430   -04 05 01.25  .93849 1.9254 165.6 21.0 .191  68
2026 04 11 20  14 14 48.193   -04 04 15.86  .93795 1.9250 165.7 21.0 .202  67
2026 04 11 21  14 14 44.950   -04 03 30.42  .93742 1.9246 165.7 21.0 .212  66
2026 04 11 22  14 14 41.702   -04 02 44.93  .93689 1.9241 165.7 21.0 .223  65
2026 04 11 23  14 14 38.449   -04 01 59.40  .93636 1.9237 165.8 21.0 .234  64
2026 04 12 00  14 14 35.191   -04 01 13.83  .93583 1.9233 165.8 21.0 .245  63
2026 04 12 01  14 14 31.928   -04 00 28.21  .93530 1.9229 165.9 21.0 .257  62
2026 04 12 02  14 14 28.660   -03 59 42.55  .93477 1.9224 165.9 21.0 .268  61
2026 04 12 03  14 14 25.386   -03 58 56.84  .93424 1.9220 165.9 21.0 .280  60
2026 04 12 04  14 14 22.108   -03 58 11.08  .93371 1.9216 166.0 21.0 .293  59
2026 04 12 05  14 14 18.824   -03 57 25.28  .93318 1.9211 166.0 21.0 .305  58
2026 04 12 06  14 14 15.535   -03 56 39.44  .93266 1.9207 166.1 21.0 .318  58
2026 04 12 07  14 14 12.241   -03 55 53.55  .93213 1.9203 166.1 21.0 .331  57
2026 04 12 08  14 14 08.942   -03 55 07.62  .93160 1.9198 166.1 21.0 .344  56
2026 04 12 09  14 14 05.638   -03 54 21.64  .93107 1.9194 166.2 21.0 .358  56
2026 04 12 10  14 14 02.328   -03 53 35.62  .93055 1.9190 166.2 21.0 .371  55
2026 04 12 11  14 13 59.014   -03 52 49.55  .93002 1.9186 166.3 21.0 .385  54
2026 04 12 12  14 13 55.694   -03 52 03.43  .92950 1.9181 166.3 21.0 .400  54
2026 04 12 13  14 13 52.369   -03 51 17.28  .92897 1.9177 166.3 21.0 .414  53
2026 04 12 14  14 13 49.039   -03 50 31.07  .92845 1.9173 166.4 21.0 .429  53
2026 04 12 15  14 13 45.704   -03 49 44.83  .92793 1.9168 166.4 21.0 .444  52
2026 04 12 16  14 13 42.364   -03 48 58.53  .92740 1.9164 166.4 21.0 .459  52
2026 04 12 17  14 13 39.019   -03 48 12.20  .92688 1.9160 166.5 21.0 .474  51
2026 04 12 18  14 13 35.669   -03 47 25.81  .92636 1.9155 166.5 21.0 .490  51
2026 04 12 19  14 13 32.313   -03 46 39.39  .92584 1.9151 166.6 21.0 .505  50
2026 04 12 20  14 13 28.952   -03 45 52.92  .92531 1.9147 166.6 21.0 .521  50
2026 04 12 21  14 13 25.587   -03 45 06.40  .92479 1.9142 166.6 21.0 .538  50
2026 04 12 22  14 13 22.216   -03 44 19.84  .92427 1.9138 166.7 21.0 .554  49
2026 04 12 23  14 13 18.840   -03 43 33.23  .92375 1.9134 166.7 21.0 .571  49
2026 04 13 00  14 13 15.459   -03 42 46.58  .92323 1.9130 166.7 20.9 .588  48
2026 04 13 01  14 13 12.072   -03 41 59.89  .92271 1.9125 166.8 20.9 .605  48
2026 04 13 02  14 13 08.681   -03 41 13.15  .92220 1.9121 166.8 20.9 .623  48
2026 04 13 03  14 13 05.285   -03 40 26.37  .92168 1.9117 166.9 20.9 .640  47
2026 04 13 04  14 13 01.883   -03 39 39.54  .92116 1.9112 166.9 20.9 .658  47
2026 04 13 05  14 12 58.476   -03 38 52.66  .92064 1.9108 166.9 20.9 .676  47
2026 04 13 06  14 12 55.064   -03 38 05.75  .92013 1.9104 167.0 20.9 .695  46
2026 04 13 07  14 12 51.648   -03 37 18.78  .91961 1.9099 167.0 20.9 .713  46